Weather History for Hayward, WI

Change the Weather History Date:

Saturday, December 10, 2011

  Actual Average Record
Temperature  
Mean Temperature 10 °F -  
Max Temperature 23 °F 29 °F 45 °F (2006)
Min Temperature -2 °F 11 °F -16 °F (2000)
Degree Days  
Heating Degree Days 54    
Moisture  
Dew Point 7 °F    
Average Humidity 70    
Maximum Humidity 85    
Minimum Humidity 55    
Precipitation  
Precipitation 0.00 in - - ()
Sea Level Pressure  
Sea Level Pressure 30.24 in    
Wind  
Wind Speed 4 mph (SSW)    
Max Wind Speed 10 mph    
Max Gust Speed 20 mph    
Visibility 9 miles    
Events      
Averages and records for this station are not official NWS values.
T = Trace of Precipitation, MM = Missing Value Source: NWS Daily Summary

Daily Weather History Graph

Daily Weather History Graph

Search for Another Location

Airport:

Trip Planner

Search our weather history database for the weather conditions in past years. The results will help you decide how hot, cold, wet, or windy it might be!

Date:

Astronomy

Dec. 10, 2011 Rise Set
Actual Time 7:36 AM CST 4:20 PM CST
Civil Twilight 7:02 AM CST 4:54 PM CST
Nautical Twilight 6:24 AM CST 5:32 PM CST
Astronomical Twilight 5:48 AM CST 6:08 PM CST
Moon 4:33 PM CST (12/10) 7:37 AM CST (12/10)
Length of Visible Light 9h 52m
Length of Day
8h 43m
Full, 100% of the Moon is Illuminated
Dec 10
Full
Dec 17
Last Quarter
Dec 24
New
Jan 1
First Quarter
Jan 9
Full

Hourly Weather History & Observations

Time (CST) Temp. Windchill Dew Point Humidity Pressure Visibility Wind Dir Wind Speed Gust Speed Precip Events Conditions
12:53 AM -0.9 °F - -6.0 °F 79% 30.35 in 7.0 mi Calm Calm - N/A   Clear
2:53 AM -2.0 °F - -7.1 °F 79% 30.37 in 10.0 mi Calm Calm - N/A   Clear
3:53 AM 3.9 °F - -0.9 °F 80% 30.35 in 10.0 mi Calm Calm - N/A   Clear
4:53 AM 7.0 °F 0.1 °F -0.0 °F 73% 30.32 in 10.0 mi SSW 3.5 mph - N/A   Partly Cloudy
6:53 AM 9.0 °F 2.4 °F -0.0 °F 67% 30.33 in 10.0 mi SSW 3.5 mph - N/A   Mostly Cloudy
7:53 AM 10.0 °F 1.8 °F -0.0 °F 64% 30.31 in 10.0 mi SSW 4.6 mph - N/A   Overcast
8:53 AM 12.0 °F 2.7 °F 1.0 °F 61% 30.29 in 10.0 mi South 5.8 mph - N/A   Overcast
9:53 AM 16.0 °F 7.4 °F 3.0 °F 57% 30.27 in 10.0 mi Variable 5.8 mph - N/A   Overcast
10:53 AM 17.1 °F 6.6 °F 5.0 °F 59% 30.25 in 10.0 mi SW 8.1 mph - N/A   Overcast
11:53 AM 19.0 °F 9.0 °F 6.1 °F 57% 30.23 in 10.0 mi SSW 8.1 mph 18.4 mph N/A   Overcast
12:53 PM 21.0 °F 10.6 °F 7.0 °F 55% 30.19 in 10.0 mi South 9.2 mph 19.6 mph N/A   Clear
1:53 PM 23.0 °F 12.4 °F 9.0 °F 55% 30.18 in 10.0 mi SSW 10.4 mph - N/A   Clear
2:53 PM 23.0 °F 14.7 °F 9.0 °F 55% 30.18 in 10.0 mi SW 6.9 mph - N/A   Clear
4:53 PM 21.0 °F 14.6 °F 10.0 °F 63% 30.20 in 10.0 mi South 4.6 mph - N/A   Clear
5:53 PM 19.9 °F 14.9 °F 10.9 °F 68% 30.22 in 10.0 mi SSW 3.5 mph - N/A   Clear
6:53 PM 19.9 °F 11.1 °F 12.9 °F 74% 30.20 in 10.0 mi SSW 6.9 mph - N/A   Clear
7:53 PM 19.9 °F 12.1 °F 14.0 °F 78% 30.20 in 9.0 mi South 5.8 mph - N/A   Clear
8:53 PM 19.9 °F 13.4 °F 15.1 °F 81% 30.19 in 8.0 mi South 4.6 mph - N/A   Clear
9:53 PM 19.9 °F 11.1 °F 16.0 °F 85% 30.17 in 6.0 mi South 6.9 mph - N/A   Clear
10:53 PM 21.0 °F 13.4 °F 17.1 °F 85% 30.16 in 6.0 mi SSW 5.8 mph - N/A   Clear
11:53 PM 21.0 °F 16.2 °F 17.1 °F 85% 30.14 in 6.0 mi SSW 3.5 mph - N/A   Clear